Location: Bolzano
(46.5015°N, 11.3369°E)
Time: 23:44:20
(UTC+01:00)

ISS - Visible Passes

Search period start: 28 November 2023 00:00
Search period end: 08 December 2023 00:00
Orbit: 416 x 418 km, 51.6° (Epoch: 28 November)

Date Brightness Start Highest point End Pass type
(mag) Time Alt. Az. Time Alt. Az. Time Alt. Az.
28 Nov -2.7 17:29:07 10° WNW 17:32:12 32° N 17:34:22 16° ENE visible
28 Nov -1.4 19:05:59 10° WNW 19:07:17 21° NW 19:07:17 21° NW visible
29 Nov -3.4 18:17:43 10° WNW 18:20:59 48° NNE 18:21:00 48° NNE visible
30 Nov -3.1 17:29:21 10° WNW 17:32:33 39° NNE 17:34:46 17° ENE visible
30 Nov -1.5 19:06:06 10° WNW 19:07:41 25° WNW 19:07:41 25° WNW visible
01 Dec -3.9 18:17:42 10° WNW 18:21:04 86° NNE 18:21:31 65° ESE visible
02 Dec -3.7 17:29:17 10° WNW 17:32:37 61° NNE 17:35:27 13° ESE visible
02 Dec -1.5 19:06:18 10° W 19:08:23 24° WSW 19:08:23 24° WSW visible
03 Dec -2.6 18:17:37 10° WNW 18:20:49 42° SW 18:22:30 23° SSE visible
04 Dec -3.4 17:29:01 10° WNW 17:32:22 67° SSW 17:35:41 10° SE visible
04 Dec -0.6 19:07:26 10° WSW 19:08:33 11° SW 19:09:39 10° SSW visible
05 Dec -1.0 18:17:49 10° W 18:20:12 18° SW 18:22:34 10° S visible
06 Dec -1.6 17:28:48 10° W 17:31:45 29° SW 17:34:41 10° SSE visible
